Location: Almendral de la Cañada
(40.1846°N, 4.7417°W)
Time: 09:41:37
(UTC+00:00)

Daily predictions for brighter satellites

Satellite Brightness Start Highest point End
(mag) Time Altitude Azimuth Time Altitude Azimuth Time Altitude Azimuth
Cosmos 2333 Rocket 3.3 17:59:37 10° SSE 18:04:05 25° ESE 18:08:35 10° NE
Cosmos 2322 Rocket 2.3 17:59:32 10° S 18:05:01 59° ESE 18:10:33 10° NNE
Cosmos 1655 Rocket 4.0 17:58:47 10° N 18:05:04 85° E 18:11:17 10° S
ARGOS 4.1 18:01:07 10° S 18:06:21 56° W 18:11:39 10° NNW
Atlas Centaur 2 4.2 18:01:23 10° SW 18:07:49 29° SSE 18:14:45 10° ESE
Cosmos 2266 Rocket 4.3 18:04:39 10° N 18:10:54 75° W 18:17:00 10° S
BlueWalker 3 4.3 18:09:43 10° NNW 18:11:22 12° N 18:13:00 10° NNE
RESURS DK-1 3.6 18:11:09 10° N 18:14:18 21° NE 18:17:27 10° ESE
Cosmos 1340 4.3 18:13:42 10° NE 18:15:41 14° ENE 18:17:38 10° ESE
COSMOS 2428 4.4 18:17:08 10° ESE 18:19:25 12° E 18:21:41 10° ENE
In-Cosmos 22 Rocket 4.5 18:14:23 10° S 18:19:59 53° E 18:25:38 10° NNE
SL-4 R/B 3.9 18:18:28 10° NNW 18:20:16 13° N 18:22:06 10° NE
SL-16 R/B 2.5 18:14:40 10° SSW 18:20:19 71° WNW 18:26:00 10° NNE
Cosmos 1184 Rocket 4.4 18:19:22 10° NNW 18:21:25 27° W 18:23:27 10° SSW
ISS -3.5 18:18:04 10° WNW 18:21:28 72° SW 18:24:51 10° SE
Cosmos 676 Rocket 4.0 18:17:09 10° SSW 18:22:27 82° ESE 18:27:44 10° NNE
SKYMED 2 3.5 18:18:18 10° NNE 18:22:39 72° ESE 18:26:58 10° S
Cosmos 1553 Rocket 4.3 18:18:50 10° SSE 18:24:26 40° E 18:30:06 10° NNE
YAOGAN 1 3.5 18:23:33 10° SE 18:27:10 27° ENE 18:30:47 10° NNE
Cosmos 2058 Rocket 4.1 18:23:53 10° NNE 18:27:31 24° ENE 18:31:08 10° SE
CZ-4B R/B 3.2 18:26:43 10° S 18:30:49 71° WSW 18:34:42 10° NNW
Genesis I 3.2 18:30:48 10° SSW 18:34:44 75° ESE 18:38:42 10° NE
Cosmos 1633 2.4 18:32:26 10° S 18:35:42 54° E 18:38:58 10° NNE
BREEZE-M DEB (TANK) 4.4 18:12:50 10° SW 18:35:49 77° SE 18:40:19 14° ENE
Delta 2 Rocket 3.8 18:38:37 10° WSW 18:41:44 37° S 18:44:02 16° ESE
PAYLOAD B 4.3 18:38:23 10° SSE 18:43:46 56° ENE 18:49:09 10° N
Meteor 2-12 Rocket 4.4 18:38:18 10° N 18:44:20 64° E 18:50:19 10° SSE
Cosmos 2228 4.3 18:42:47 10° NNW 18:46:47 42° W 18:50:46 10° SSW
Cosmos 44 Rocket 3.5 18:43:45 10° S 18:48:13 47° ESE 18:51:43 16° NE
Cosmos 1606 Rocket 3.8 18:49:08 10° NNW 18:53:27 70° W 18:57:44 10° S
Cosmos 1869 3.2 18:53:05 10° N 18:56:57 56° E 19:00:50 10° SSE
Meteor 1-27 4.2 18:51:19 10° N 18:57:03 62° ENE 19:02:39 10° SSE
S3M 4.2 18:54:07 10° SSE 19:00:09 47° E 19:06:13 10° NNE
Cosmos 1892 Rocket 3.7 18:58:13 10° SSW 19:02:38 75° W 19:07:02 10° N
PSLV R/B 3.5 19:00:34 10° SSE 19:04:11 78° ENE 19:07:54 10° N
COSMO-SKYMED 1 4.3 19:06:36 10° N 19:10:30 33° WNW 19:14:23 10° SW
Cosmos 468 Rocket 4.4 19:05:53 10° NNW 19:10:59 63° WSW 19:16:01 10° S
BREEZE-M DEB (TANK) 4.4 19:11:48 10° WNW 19:14:41 20° SW 19:16:39 10° S
DMSP B5D1-3 4.4 19:10:16 10° NNE 19:15:24 78° ESE 19:20:31 10° S
Cosmos 1844 Rocket 2.9 19:10:18 10° NNW 19:15:50 70° WSW 19:21:21 10° SSE
Lacrosse 5 3.6 19:16:17 10° W 19:20:34 26° NNW 19:24:06 13° NNE
Cosmos 2315 Rocket 4.3 19:15:56 10° SSE 19:21:47 42° E 19:27:41 10° NNE
CZ-4B R/B 3.0 19:16:30 10° SSE 19:21:50 85° ENE 19:27:18 10° NNW
Lacrosse 5 rocket 1.4 19:19:43 10° NW 19:22:52 46° NNE 19:22:52 46° NNE
USA 215 3.9 19:17:24 10° SSE 19:23:47 55° SW 19:30:13 10° NW
BREEZE-M DEB (TANK) 3.6 19:23:51 10° WNW 19:27:38 57° NNE 19:30:46 33° E
Spot 1 3.7 19:25:55 26° NNE 19:28:08 81° ESE 19:32:12 10° SSW
Cosmos 1814 Rocket 4.4 19:25:32 10° N 19:30:17 41° NE 19:30:17 41° NE
Cosmos 1850 Rocket 4.4 19:27:09 10° SSW 19:32:17 62° WNW 19:37:26 10° NNE
Cosmos 2219 Rocket 2.2 19:29:37 10° SSW 19:35:12 82° WNW 19:39:20 19° NNE
Cosmos 1844 4.3 19:29:38 10° NNW 19:35:19 57° WSW 19:40:54 10° S
Cosmos 2360 Rocket 3.6 19:30:56 10° SW 19:36:07 37° WNW 19:41:21 10° N
Cosmos 1626 Rocket 3.3 19:32:07 10° S 19:36:25 82° E 19:37:37 47° NNE
CZ-4 R/B 1.4 19:32:35 10° S 19:36:43 82° W 19:40:49 10° NNW
USA 81 3.9 19:33:09 10° S 19:38:24 77° E 19:43:40 10° N
ATLAS 2AS CENTAUR R/B 3.8 19:32:22 10° NW 19:38:44 42° WSW 19:44:46 10° S
Cosmos 841 Rocket 3.6 19:34:56 10° NNW 19:40:13 76° WSW 19:45:25 10° S
Okean O Rocket 1.5 19:35:56 10° SSE 19:40:19 85° WSW 19:44:45 10° NNW
Cosmos 2333 Rocket 3.2 19:42:38 10° SW 19:48:01 45° WNW 19:53:26 10° NNE
Cosmos 2322 Rocket 4.4 19:45:19 10° W 19:49:29 21° NW 19:53:40 10° N
Cosmos 1745 Rocket 4.1 19:43:21 10° N 19:49:35 76° W 19:55:43 10° S
Cosmos 2278 Rocket 3.8 19:45:31 10° N 19:47:45 20° NNE 19:47:45 20° NNE
Cosmos 1340 4.3 19:47:42 10° NNW 19:51:02 33° W 19:54:20 10° SSW
Okean 1-7 Rocket 3.7 19:46:50 10° SSW 19:51:13 72° W 19:52:29 45° NNW
BlueWalker 3 4.5 19:48:47 10° NNW 19:49:43 13° NNW 19:49:43 13° NNW
RESURS DK-1 4.0 19:48:36 10° NW 19:52:18 33° WSW 19:55:51 11° S
Cosmos 1932 4.4 19:48:37 10° SSW 19:55:00 85° ESE 19:56:59 48° NE
Atlas Centaur 2 3.7 19:49:05 10° WSW 19:56:40 42° S 19:58:55 36° SE
SL-4 R/B 4.3 19:57:25 10° NW 19:58:14 15° NNW 19:58:14 15° NNW
COSMOS 2428 2.6 19:57:10 10° SSW 20:02:49 82° WNW 20:03:49 62° N
CSL-04 Debris 4.2 20:04:49 66° N 20:04:49 66° N 20:09:27 10° NNW
Cosmos 1709 Rocket 3.9 20:01:48 10° N 20:07:57 85° W 20:11:34 26° S
CSL-04 Rocket 4.4 20:11:16 42° N 20:11:16 42° N 20:14:46 10° NNW
Cosmos 968 Rocket 3.8 20:10:17 10° SSW 20:14:53 62° WSW 20:14:53 62° WSW
BREEZE-M DEB (TANK) 4.2 20:06:44 10° WNW 20:34:05 80° NNE 20:35:12 71° E
H-2A R/B 4.4 20:53:35 10° SW 21:37:14 - E 20:56:17 29° SSW
